Wind_Speed
38 38 40 41 41 40 41 41 42 40 38 35 35 36 37 37 36 35 35 35 35 35 35 34 34 33 33 33 34 34 34 35 35 34 34 34 36 36 37 37 39 40 40 41
39 38 39 41 42 43 42 41 41 40 38 36 36 37 37 38 37 36 36 35 35 35 35 34 34 33 33 33 34 34 34 33 33 33 33 33 34 35 36 37 38 39 39 39
39 39 40 41 40 41 42 41 40 40 39 38 38 38 38 37 37 37 36 35 35 35 35 35 34 34 34 34 33 33 34 34 32 33 33 33 33 34 35 36 36 36 38 38
37 38 41 40 38 39 40 41 41 40 38 37 37 38 38 38 38 38 37 36 36 36 36 36 35 35 35 35 35 35 34 34 33 33 32 32 32 32 33 33 34 35 36 38
34 36 39 38 38 38 38 38 39 39 38 37 37 38 38 38 38 37 37 36 36 36 35 36 36 35 36 35 35 35 34 34 34 34 33 32 32 31 32 33 34 35 35 37
32 33 34 34 35 35 35 36 35 36 37 37 36 37 38 37 37 36 36 37 36 36 35 35 35 35 36 35 35 35 34 34 34 34 34 34 34 34 33 34 35 36 36 36
26 27 28 29 31 31 33 33 32 33 33 34 35 36 37 37 37 36 36 36 36 36 36 36 36 36 36 36 36 36 35 34 34 34 34 35 36 35 34 34 35 36 37 38
23 25 25 24 26 29 31 31 31 31 32 33 34 35 36 36 36 36 36 36 36 36 36 36 36 36 35 35 36 36 35 34 34 34 36 36 36 35 35 35 36 36 37 37
22 23 23 23 24 26 28 30 31 30 31 32 33 34 35 36 36 36 36 36 36 36 36 36 36 36 36 35 35 35 35 35 35 35 35 36 37 37 37 37 37 37 37 37
20 22 23 22 22 24 26 28 29 30 31 32 33 33 34 34 35 35 35 36 36 36 36 36 36 36 36 36 36 35 35 36 36 36 36 36 36 36 37 38 38 38 37 37
20 21 22 22 22 23 24 25 27 28 29 30 31 31 31 32 32 33 33 33 34 35 35 35 35 35 35 35 35 35 35 35 36 36 36 36 37 38 38 38 39 39 38 38
20 21 22 22 22 23 24 25 25 26 27 27 28 29 29 30 31 32 33 33 34 34 35 35 35 35 34 34 33 34 34 34 35 36 37 37 37 37 37 38 39 39 39 40
20 21 22 22 23 24 25 25 25 25 26 27 27 28 29 30 31 32 33 34 34 34 35 34 34 34 34 34 33 33 34 34 34 34 35 35 35 36 36 37 38 39 39 39
19 20 21 22 22 23 24 25 26 26 26 26 27 27 28 29 31 32 33 34 34 34 34 34 34 33 33 34 34 34 33 33 33 33 34 34 34 34 35 36 36 37 38 38
20 21 21 22 22 22 23 24 25 26 26 27 27 27 28 28 29 30 31 32 33 33 32 32 33 33 33 33 33 33 33 34 34 34 34 34 34 34 35 35 35 35 36 36
20 21 21 22 22 23 23 24 24 25 26 26 27 27 28 28 28 28 29 30 31 31 31 31 32 32 33 33 34 34 34 34 35 34 34 34 33 33 34 34 35 34 34 35
20 20 21 22 22 23 24 25 25 26 26 27 27 27 27 27 28 28 28 29 29 30 30 31 32 32 33 34 34 34 34 35 35 35 34 34 33 33 34 33 33 33 33 34
21 21 22 22 23 24 25 25 26 26 27 28 28 28 28 29 29 30 30 30 30 31 31 31 31 32 32 32 33 33 33 34 34 34 34 34 34 34 34 34 34 34 34 34
21 21 22 22 23 23 23 25 26 27 28 28 29 29 29 30 30 30 30 30 31 31 31 31 31 31 31 31 31 31 32 32 32 32 32 32 33 33 34 35 35 35 35 36
21 21 22 22 23 23 23 24 25 26 26 27 27 28 29 29 30 29 28 29 29 30 30 30 30 31 30 30 31 31 31 31 30 30 30 30 31 31 32 33 34 34 35 36
21 22 22 22 22 23 23 23 24 24 25 26 26 27 27 28 28 28 28 28 28 29 29 29 30 30 30 30 30 29 29 29 29 29 29 30 30 30 31 32 33 33 33 34
22 22 22 23 23 22 23 23 23 23 24 24 24 25 26 26 27 27 28 28 28 28 28 28 29 29 29 28 28 27 27 27 28 29 30 30 30 31 31 31 31 32 32 33
22 21 21 21 22 22 23 23 23 23 24 24 24 24 25 25 26 26 26 27 28 28 28 28 28 28 27 27 27 27 27 27 28 28 29 29 30 30 30 30 30 30 30 30
21 21 21 21 21 21 21 22 22 23 23 24 24 24 24 25 26 26 26 26 27 28 28 28 28 27 27 27 27 27 27 27 28 28 28 28 27 27 28 28 28 28 28 28
20 20 20 20 21 21 20 20 20 21 22 22 22 23 23 23 24 25 25 26 26 27 28 28 28 27 27 27 27 27 27 27 27 26 26 26 26 26 26 26 26 26 26 26
19 19 19 19 19 18 18 18 18 19 19 20 20 21 21 22 22 22 23 24 24 25 26 26 27 27 27 27 27 26 26 26 25 24 24 24 24 24 24 24 24 24 24 24
18 18 18 18 18 18 18 18 18 18 18 19 19 20 20 20 21 21 21 21 21 22 22 23 24 24 24 24 24 24 24 24 23 23 22 22 22 22 22 22 22 22 22 23
Wind_Direction
254 253 252 250 248 248 249 251 253 254 256 256 255 256 256 256 258 259 259 260 261 261 261 262 263 264 265 264 265 266 265 262 260 261 260 260 260 258 256 255 255 254 254 254
252 252 253 250 248 249 250 252 253 254 254 254 254 254 255 255 256 257 258 260 261 261 261 261 262 263 264 265 265 265 263 262 260 260 260 260 259 258 256 255 254 253 254 254
254 252 253 252 251 251 251 251 253 253 252 252 252 253 254 254 255 255 258 260 260 260 260 261 262 263 264 265 267 266 263 262 262 260 259 259 259 259 258 256 255 255 255 253
257 254 254 254 253 253 253 252 252 252 251 250 250 250 251 253 255 256 257 259 259 258 259 260 261 262 263 265 267 267 265 264 262 260 259 260 260 259 258 256 256 256 256 255
260 260 258 255 255 255 255 254 252 252 251 249 249 250 251 252 253 254 255 257 257 258 260 261 262 262 263 265 265 265 264 263 261 260 259 259 259 260 260 259 259 256 256 256
261 262 261 259 256 255 254 254 254 253 251 248 249 250 251 251 252 253 254 255 256 258 259 260 260 261 262 263 264 264 263 262 261 260 260 259 260 261 261 261 260 258 258 258
258 261 261 261 258 254 253 253 252 252 251 249 250 252 252 253 254 254 254 255 257 258 259 259 259 260 262 262 262 263 262 261 260 259 260 260 261 263 263 262 261 260 261 260
251 251 254 258 256 253 252 251 251 251 251 251 252 253 254 255 255 255 254 255 256 258 260 259 260 260 261 263 262 261 261 261 262 260 261 262 262 263 263 262 262 263 262 262
252 254 256 255 253 252 251 250 252 253 252 252 253 253 254 255 255 255 255 255 256 258 259 260 261 262 262 263 262 261 260 260 260 260 260 262 263 263 263 264 265 266 264 262
254 253 257 259 256 254 253 253 253 253 254 255 255 255 255 255 255 256 257 256 257 258 259 260 261 262 262 262 262 262 261 260 259 260 260 261 263 264 264 265 266 265 264 264
255 256 258 259 257 257 257 256 256 253 254 254 255 255 255 255 256 257 257 258 258 259 259 260 261 262 262 261 262 261 261 261 260 260 261 262 263 265 265 264 264 264 263 263
259 259 260 260 258 257 257 257 256 256 254 255 255 254 254 254 255 256 257 258 259 260 261 262 262 262 262 263 262 262 261 260 261 261 262 263 263 263 264 262 262 263 264 265
264 263 263 262 260 260 258 257 257 256 255 254 254 254 255 257 258 258 258 259 261 262 263 263 263 263 263 263 263 263 263 264 264 264 264 264 264 264 264 265 264 265 265 267
267 266 265 265 264 261 260 259 258 257 257 256 256 257 258 259 260 260 259 260 262 263 263 263 263 263 263 263 264 264 264 265 265 265 266 267 267 266 266 267 267 266 266 267
270 268 267 266 265 263 261 260 259 259 258 258 258 259 260 261 262 262 262 262 262 262 262 262 262 263 263 263 264 265 265 265 265 266 267 267 268 268 267 268 268 268 267 267
276 274 272 270 268 266 264 263 262 262 262 261 261 262 263 263 263 263 264 264 264 261 261 261 262 263 264 263 263 265 266 266 266 266 268 268 268 269 269 269 269 269 269 268
280 278 276 273 271 269 267 266 265 263 263 263 263 262 262 263 264 265 265 265 264 264 263 263 263 264 264 264 264 265 266 267 267 267 267 266 267 267 268 268 268 269 269 269
280 279 278 276 273 271 269 269 268 266 266 265 264 263 263 263 264 266 266 265 265 265 265 265 265 266 265 264 264 265 266 267 267 266 266 266 266 267 269 269 268 269 269 269
285 282 280 278 276 273 271 269 269 269 268 266 265 265 265 266 266 266 266 266 266 266 266 266 267 267 265 264 265 266 267 267 266 265 265 266 267 268 269 269 269 269 269 269
286 284 282 280 277 275 274 271 270 269 268 267 267 267 266 266 267 267 266 266 266 265 266 268 268 266 265 265 265 266 265 265 264 263 264 266 268 269 270 270 270 270 270 271
289 285 284 283 282 278 276 274 273 271 270 269 269 268 267 267 267 266 265 265 265 265 266 267 267 265 265 266 266 265 264 264 264 263 264 267 269 271 271 272 271 271 271 272
292 289 286 284 282 282 279 277 275 273 271 271 270 270 269 268 267 267 266 264 264 265 267 267 267 265 265 265 265 266 266 265 265 266 267 270 271 272 273 274 273 272 272 272
293 290 287 285 285 284 281 278 275 274 273 272 270 269 269 269 269 268 266 264 264 265 266 267 267 266 264 264 264 265 266 266 268 269 269 271 272 272 273 274 274 273 273 273
295 292 290 289 288 287 284 280 277 276 275 274 272 271 271 271 270 268 266 265 265 266 265 265 265 264 262 262 263 265 266 268 269 269 270 270 271 272 273 274 274 273 272 273
299 296 295 294 293 291 288 285 282 280 279 276 274 272 273 273 272 269 267 267 267 266 265 264 263 263 263 264 264 265 266 267 269 269 268 269 270 271 272 273 273 273 273 273
302 301 300 299 297 295 292 290 287 286 283 280 278 277 276 274 273 271 269 268 268 268 266 264 263 263 263 263 263 263 264 265 267 267 267 267 268 269 271 272 272 273 275 275
306 304 303 301 300 298 296 294 292 289 287 285 283 282 280 278 275 273 271 271 271 270 268 266 264 262 262 261 260 260 261 263 264 264 265 267 267 268 269 270 271 273 275 276
Height
5526 5529 5532 5534 5539 5542 5544 5547 5550 5556 5560 5564 5566 5568 5570 5571 5573 5575 5577 5578 5580 5581 5582 5584 5585 5585 5586 5586 5586 5586 5585 5585 5586 5587 5587 5588 5588 5590 5591 5593 5595 5597 5599 5602
5516 5519 5520 5523 5528 5531 5534 5538 5541 5544 5549 5554 5555 5557 5559 5561 5563 5565 5567 5568 5570 5571 5573 5574 5575 5576 5577 5577 5577 5577 5576 5576 5577 5577 5578 5579 5579 5580 5582 5583 5585 5588 5590 5592
5505 5509 5509 5512 5519 5522 5524 5528 5531 5533 5539 5542 5544 5546 5549 5551 5553 5555 5557 5558 5560 5561 5563 5564 5565 5566 5567 5567 5568 5567 5567 5568 5568 5568 5569 5570 5570 5571 5573 5574 5576 5579 5581 5583
5495 5498 5499 5506 5510 5512 5514 5517 5520 5522 5526 5530 5533 5535 5538 5541 5543 5545 5547 5548 5550 5551 5553 5554 5556 5557 5557 5558 5558 5558 5558 5558 5559 5559 5560 5561 5562 5563 5564 5566 5568 5569 5571 5573
5485 5486 5489 5495 5498 5501 5503 5506 5509 5512 5516 5519 5521 5524 5528 5530 5532 5534 5536 5538 5540 5541 5543 5544 5546 5547 5548 5548 5549 5549 5549 5550 5550 5551 5552 5553 5554 5555 5556 5557 5559 5560 5562 5563
5476 5478 5480 5486 5488 5490 5494 5496 5500 5502 5505 5508 5511 5514 5518 5519 5521 5523 5526 5528 5529 5531 5533 5534 5535 5537 5538 5538 5539 5539 5540 5540 5541 5542 5543 5544 5545 5546 5547 5548 5550 5551 5552 5554
5469 5470 5472 5476 5479 5482 5485 5488 5491 5492 5495 5498 5501 5504 5507 5509 5511 5513 5515 5518 5519 5521 5523 5524 5525 5527 5528 5529 5529 5529 5530 5531 5532 5533 5534 5535 5536 5537 5538 5539 5540 5542 5543 5544
5462 5464 5468 5469 5471 5473 5475 5478 5481 5483 5486 5489 5491 5494 5496 5498 5501 5503 5505 5507 5509 5511 5512 5514 5515 5516 5517 5519 5519 5520 5521 5521 5522 5523 5524 5525 5526 5527 5528 5529 5530 5532 5533 5533
5457 5459 5460 5461 5462 5464 5467 5469 5472 5475 5477 5479 5482 5484 5486 5489 5491 5493 5495 5497 5499 5501 5502 5503 5505 5506 5507 5508 5509 5510 5511 5512 5512 5513 5514 5515 5516 5517 5518 5519 5520 5521 5522 5523
5450 5452 5453 5454 5456 5457 5459 5461 5464 5466 5468 5470 5473 5475 5477 5479 5481 5484 5485 5487 5489 5490 5492 5493 5494 5495 5496 5498 5499 5500 5501 5502 5502 5503 5504 5505 5506 5507 5508 5509 5510 5511 5512 5513
5445 5447 5448 5448 5450 5451 5453 5454 5456 5458 5460 5462 5464 5466 5468 5470 5472 5474 5476 5477 5478 5480 5482 5483 5484 5485 5486 5487 5488 5489 5490 5491 5492 5493 5494 5494 5495 5496 5497 5498 5499 5500 5501 5502
5440 5441 5442 5443 5444 5445 5446 5448 5449 5451 5453 5454 5456 5458 5459 5461 5463 5464 5466 5468 5469 5470 5471 5473 5474 5475 5476 5477 5478 5479 5480 5481 5482 5483 5483 5484 5484 5485 5486 5487 5488 5488 5489 5490
5434 5435 5436 5437 5437 5438 5440 5441 5442 5444 5445 5447 5448 5450 5451 5452 5454 5455 5457 5458 5459 5460 5462 5463 5464 5465 5466 5467 5468 5469 5470 5471 5471 5472 5473 5473 5474 5474 5475 5476 5476 5477 5478 5478
5429 5429 5430 5430 5431 5432 5433 5434 5435 5436 5438 5439 5440 5442 5443 5444 5445 5446 5447 5448 5449 5451 5452 5453 5454 5455 5456 5457 5458 5459 5460 5461 5461 5462 5462 5463 5463 5464 5465 5465 5466 5466 5466 5467
5423 5424 5424 5424 5425 5425 5426 5427 5428 5429 5430 5431 5432 5433 5434 5435 5436 5437 5438 5439 5440 5441 5442 5443 5444 5445 5446 5447 5448 5449 5450 5450 5451 5452 5452 5452 5453 5453 5454 5455 5455 5455 5456 5456
5418 5418 5418 5418 5418 5419 5419 5420 5421 5422 5422 5423 5424 5425 5426 5426 5427 5428 5429 5429 5430 5431 5432 5433 5434 5435 5436 5437 5438 5439 5439 5440 5440 5441 5442 5442 5443 5443 5444 5444 5444 5445 5445 5445
5413 5413 5412 5412 5412 5412 5412 5413 5413 5414 5414 5415 5415 5416 5417 5417 5418 5419 5419 5420 5421 5421 5422 5423 5424 5425 5426 5427 5428 5429 5429 5429 5430 5430 5431 5432 5432 5433 5433 5434 5434 5434 5434 5434
5407 5407 5406 5406 5405 5405 5405 5405 5405 5406 5406 5406 5407 5407 5408 5409 5409 5410 5410 5411 5411 5412 5412 5413 5414 5415 5416 5417 5418 5418 5419 5419 5419 5420 5421 5421 5422 5422 5423 5423 5423 5424 5424 5424
5401 5400 5399 5399 5398 5398 5397 5397 5397 5397 5397 5398 5398 5398 5399 5399 5400 5400 5401 5401 5402 5402 5403 5403 5404 5405 5406 5406 5407 5408 5409 5409 5409 5410 5411 5411 5412 5412 5412 5412 5412 5412 5412 5413
5395 5394 5393 5392 5391 5390 5390 5390 5389 5389 5389 5389 5389 5389 5390 5390 5390 5391 5391 5392 5392 5392 5393 5394 5394 5395 5396 5397 5397 5398 5399 5399 5400 5400 5401 5402 5402 5402 5402 5402 5402 5401 5401 5401
5389 5387 5386 5384 5383 5383 5382 5382 5381 5381 5381 5381 5381 5381 5381 5381 5381 5382 5382 5383 5383 5383 5384 5384 5385 5386 5386 5387 5387 5388 5389 5389 5390 5391 5391 5392 5392 5392 5392 5391 5391 5391 5391 5390
5382 5380 5379 5378 5376 5375 5375 5374 5373 5373 5373 5373 5373 5372 5373 5373 5373 5373 5373 5374 5374 5374 5375 5375 5376 5376 5377 5378 5378 5379 5379 5380 5381 5381 5382 5382 5382 5382 5382 5381 5381 5380 5380 5379
5376 5374 5372 5371 5370 5368 5367 5366 5366 5365 5365 5365 5365 5364 5364 5364 5364 5364 5365 5365 5365 5366 5366 5367 5367 5368 5368 5369 5370 5370 5371 5371 5372 5372 5372 5372 5372 5372 5372 5371 5370 5370 5370 5369
5369 5367 5366 5364 5363 5361 5360 5359 5358 5358 5357 5357 5356 5356 5356 5356 5356 5356 5356 5356 5357 5357 5358 5358 5359 5359 5360 5360 5361 5362 5362 5363 5363 5363 5363 5363 5362 5362 5362 5362 5361 5360 5360 5360
5364 5362 5360 5358 5357 5355 5354 5353 5352 5351 5350 5349 5349 5349 5348 5348 5348 5348 5348 5348 5348 5348 5349 5349 5350 5350 5351 5352 5352 5353 5353 5353 5353 5353 5353 5353 5353 5353 5353 5352 5352 5351 5351 5351
5359 5357 5355 5353 5351 5349 5348 5347 5346 5345 5344 5343 5342 5341 5341 5340 5340 5340 5340 5340 5340 5340 5340 5340 5340 5341 5342 5342 5343 5343 5344 5344 5345 5345 5345 5345 5345 5345 5345 5344 5344 5343 5343 5342
5354 5352 5350 5348 5346 5344 5343 5341 5340 5339 5338 5337 5336 5335 5334 5333 5333 5333 5333 5333 5332 5332 5332 5332 5332 5332 5333 5333 5334 5335 5336 5336 5336 5337 5337 5337 5337 5337 5337 5337 5336 5336 5335 5335